Des Moines, IA

5:24 AM CST on February 22, 2017 (GMT -0600)
Des Moines International

Weather History for KDSM - November, 2010

Change the Weather History Date:

Sunday, November 7, 2010

  Actual Average Record
Temperature  
Mean Temperature 56 °F 44 °F  
Max Temperature 70 °F 53 °F 79 °F (1915)
Min Temperature 42 °F 35 °F -3 °F (1991)
Degree Days  
Heating Degree Days 9 21  
Month to date heating degree days 130 138  
Since 1 July heating degree days 426 622  
Cooling Degree Days 0 0  
Month to date cooling degree days 0 0  
Year to date cooling degree days 1379 1066  
Growing Degree Days 6 (Base 50)    
Moisture  
Dew Point 31 °F    
Average Humidity 42    
Maximum Humidity 53    
Minimum Humidity 30    
Precipitation  
Precipitation 0.00 in 0.08 in 1.29 in (1932)
Month to date precipitation 0.00 0.59  
Year to date precipitation 48.71 33.00  
Snow  
Snow 0.00 in 0.00 in 2.20 in (1925)
Month to date snowfall 0.0 0.2  
Since 1 July snowfall T 0.6  
Since 1 September snowfall T 0.6  
Snow Depth 0.00 in    
Sea Level Pressure  
Sea Level Pressure 30.04 in    
Wind  
Wind Speed 11 mph (SSW)    
Max Wind Speed 20 mph    
Max Gust Speed 24 mph    
Visibility 10 miles    
Events      
T = Trace of Precipitation, MM = Missing Value Source: NWS Daily Summary

Daily Weather History Graph

Daily Weather History Graph

Search for Another Location

Airport or City:

Trip Planner

Search our weather history database for the weather conditions in past years. The results will help you decide how hot, cold, wet, or windy it might be!

Date:

Astronomy

Nov. 07, 2010 Rise Set
Actual Time 6:53 AM CST 5:02 PM CST
Civil Twilight 6:24 AM CST 5:31 PM CST
Nautical Twilight 5:51 AM CST 6:04 PM CST
Astronomical Twilight 5:18 AM CST 6:37 PM CST
Moon 8:42 AM CST (11/7) 5:59 PM CST (11/7)
Length of Visible Light 11h 07m
Length of Day
10h 08m
Waxing Crescent, 3% of the Moon is Illuminated
Nov 7
Waxing Crescent
Nov 13
First Quarter
Nov 21
Full
Nov 28
Last Quarter
Dec 5
New

Hourly Weather History & Observations

Time (CST) Temp. Windchill Dew Point Humidity Pressure Visibility Wind Dir Wind Speed Gust Speed Precip Events Conditions
12:54 AM 48.0 °F - 24.1 °F 39% 30.15 in 10.0 mi South 10.4 mph - N/A   Clear
1:54 AM 46.9 °F - 24.1 °F 41% 30.14 in 10.0 mi South 6.9 mph - N/A   Clear
1:54 AM 45.0 °F 41.2 °F 24.1 °F 44% 30.13 in 10.0 mi South 6.9 mph - N/A   Clear
2:54 AM 44.1 °F 39.5 °F 24.1 °F 45% 30.11 in 10.0 mi South 8.1 mph - N/A   Clear
3:54 AM 45.0 °F 40.1 °F 25.0 °F 46% 30.11 in 10.0 mi SSW 9.2 mph - N/A   Clear
4:54 AM 42.1 °F 37.7 °F 25.0 °F 51% 30.12 in 10.0 mi South 6.9 mph - N/A   Clear
5:54 AM 43.0 °F 38.2 °F 26.1 °F 51% 30.11 in 10.0 mi South 8.1 mph - N/A   Clear
6:54 AM 43.0 °F 37.7 °F 27.0 °F 53% 30.10 in 10.0 mi South 9.2 mph - N/A   Mostly Cloudy
7:54 AM 48.0 °F - 28.9 °F 48% 30.11 in 10.0 mi SSW 11.5 mph - N/A   Partly Cloudy
8:54 AM 52.0 °F - 30.9 °F 45% 30.10 in 10.0 mi SSW 11.5 mph - N/A   Partly Cloudy
9:54 AM 57.9 °F - 33.1 °F 39% 30.09 in 10.0 mi SW 9.2 mph - N/A   Partly Cloudy
10:54 AM 61.0 °F - 34.0 °F 36% 30.08 in 10.0 mi SW 18.4 mph - N/A   Mostly Cloudy
11:54 AM 64.9 °F - 35.1 °F 33% 30.05 in 10.0 mi SSW 12.7 mph - N/A   Overcast
12:54 PM 66.9 °F - 36.0 °F 32% 30.01 in 10.0 mi SSW 15.0 mph - N/A   Overcast
1:54 PM 68.0 °F - 36.0 °F 31% 29.99 in 10.0 mi SSW 15.0 mph 21.9 mph N/A   Overcast
2:54 PM 68.0 °F - 37.9 °F 33% 29.98 in 10.0 mi South 10.4 mph - N/A   Overcast
3:54 PM 69.1 °F - 37.0 °F 31% 29.96 in 10.0 mi SSW 15.0 mph - N/A   Mostly Cloudy
4:54 PM 66.0 °F - 36.0 °F 33% 29.96 in 10.0 mi South 11.5 mph - N/A   Mostly Cloudy
5:54 PM 60.1 °F - 34.0 °F 38% 29.96 in 10.0 mi South 10.4 mph - N/A   Scattered Clouds
6:54 PM 57.9 °F - 34.0 °F 41% 29.96 in 10.0 mi South 9.2 mph - N/A   Clear
7:54 PM 57.9 °F - 33.1 °F 39% 29.96 in 10.0 mi South 9.2 mph - N/A   Clear
8:54 PM 55.0 °F - 33.1 °F 43% 29.95 in 10.0 mi South 9.2 mph - N/A   Clear
9:54 PM 55.0 °F - 32.0 °F 42% 29.95 in 10.0 mi South 8.1 mph - N/A   Mostly Cloudy
10:54 PM 55.9 °F - 33.1 °F 42% 29.93 in 10.0 mi South 8.1 mph - N/A   Mostly Cloudy